• En España
  • Catálogo de los países
  • Para 7 días
  • Temperatura del agua
  • Satélites
  • Mapas de tiempo
  • Reproductores
  • user-avatar
    Entrar

    Situación metereológica por horas en Meppel

    Hoy, 8 Febrero, Lunes

    hora temperatura Precipitaciones Viento Presión Humedad
    00:00 +3°C° 0 mm 11 m/s 745 mmHg 77%
    01:00 +4°C° 0,5 mm 13 m/s 743 mmHg 78%
    02:00 +4°C° 0,5 mm 14 m/s 742 mmHg 79%
    03:00 +4°C° 0,5 mm 16 m/s 741 mmHg 80%
    04:00 +5°C° 0,9 mm 15 m/s 740 mmHg 81%
    05:00 +5°C° 0,9 mm 15 m/s 739 mmHg 82%
    06:00 +6°C° 0,9 mm 14 m/s 739 mmHg 83%
    07:00 +7°C° 0,2 mm 13 m/s 739 mmHg 81%
    08:00 +7°C° 0,2 mm 13 m/s 739 mmHg 78%
    09:00 +7°C° 0,2 mm 12 m/s 739 mmHg 75%
    10:00 +7°C° 0,2 mm 13 m/s 739 mmHg 72%
    11:00 +7°C° 0,2 mm 13 m/s 739 mmHg 69%
    12:00 +6°C° 0,2 mm 14 m/s 739 mmHg 66%
    13:00 +7°C° 0,2 mm 13 m/s 738 mmHg 67%
    14:00 +7°C° 0,2 mm 13 m/s 738 mmHg 67%
    15:00 +5°C° 0,2 mm 13 m/s 738 mmHg 67%
    16:00 +5°C° 0,9 mm 14 m/s 738 mmHg 70%
    17:00 +5°C° 0,9 mm 15 m/s 737 mmHg 73%
    18:00 +5°C° 0,9 mm 16 m/s 737 mmHg 75%
    19:00 +4°C° 0,9 mm 16 m/s 738 mmHg 76%
    20:00 +4°C° 0,9 mm 16 m/s 738 mmHg 77%
    21:00 +4°C° 0,9 mm 16 m/s 739 mmHg 78%
    22:00 +4°C° 0,7 mm 16 m/s 739 mmHg 77%
    23:00 +4°C° 0,7 mm 16 m/s 740 mmHg 76%

    Mañana, 9 Febrero, Martes

    hora temperatura Precipitaciones Viento Presión Humedad
    00:00 +4°C° 0,7 mm 16 m/s 741 mmHg 75%
    01:00 +4°C° 0,4 mm 15 m/s 741 mmHg 73%
    02:00 +3°C° 0,4 mm 14 m/s 742 mmHg 71%
    03:00 +3°C° 0,4 mm 13 m/s 742 mmHg 70%
    04:00 +3°C° 0 mm 12 m/s 742 mmHg 71%
    05:00 +2°C° 0 mm 11 m/s 742 mmHg 71%
    06:00 +2°C° 0 mm 10 m/s 742 mmHg 72%
    07:00 +2°C° 0 mm 9 m/s 742 mmHg 75%
    08:00 +2°C° 0 mm 9 m/s 742 mmHg 78%
    09:00 +4°C° 0 mm 8 m/s 742 mmHg 80%
    10:00 +4°C° 0,1 mm 7 m/s 740 mmHg 79%
    11:00 +4°C° 0,1 mm 6 m/s 739 mmHg 79%
    12:00 +6°C° 0,1 mm 5 m/s 737 mmHg 78%
    13:00 +5°C° 0,9 mm 5 m/s 736 mmHg 81%
    14:00 +5°C° 0,9 mm 5 m/s 734 mmHg 84%
    15:00 +5°C° 0,9 mm 5 m/s 733 mmHg 86%
    16:00 +3°C° 1,7 mm 6 m/s 733 mmHg 86%
    17:00 +2°C° 1,7 mm 8 m/s 733 mmHg 85%
    18:00 +2°C° 1,7 mm 9 m/s 733 mmHg 84%
    19:00 +2°C° 0,7 mm 9 m/s 735 mmHg 81%
    20:00 +2°C° 0,7 mm 9 m/s 736 mmHg 79%
    21:00 +2°C° 0,7 mm 9 m/s 737 mmHg 76%
    22:00 +2°C° 0 mm 9 m/s 738 mmHg 75%
    23:00 +2°C° 0 mm 9 m/s 739 mmHg 74%

    Pasado mañana, 10 Febrero, Miércoles

    hora temperatura Precipitaciones Viento Presión Humedad
    00:00 +2°C° 0 mm 9 m/s 739 mmHg 73%
    01:00 +1°C° 0 mm 9 m/s 739 mmHg 73%
    02:00 +1°C° 0 mm 9 m/s 739 mmHg 73%
    03:00 +1°C° 0 mm 9 m/s 740 mmHg 72%
    04:00 +1°C° 0 mm 9 m/s 740 mmHg 73%
    05:00 +1°C° 0 mm 9 m/s 740 mmHg 74%
    06:00 0°C° 0 mm 9 m/s 740 mmHg 75%
    07:00 +1°C° 0,1 mm 9 m/s 741 mmHg 76%
    08:00 +1°C° 0,1 mm 9 m/s 741 mmHg 78%
    09:00 +1°C° 0,1 mm 9 m/s 742 mmHg 79%
    10:00 +2°C° 0,1 mm 9 m/s 742 mmHg 74%
    11:00 +4°C° 0,1 mm 8 m/s 743 mmHg 70%
    12:00 +4°C° 0,1 mm 8 m/s 743 mmHg 65%
    13:00 +4°C° 0 mm 8 m/s 744 mmHg 65%
    14:00 +3°C° 0 mm 9 m/s 744 mmHg 66%
    15:00 +3°C° 0 mm 9 m/s 744 mmHg 67%
    16:00 +2°C° 0 mm 9 m/s 745 mmHg 70%
    17:00 +2°C° 0 mm 9 m/s 745 mmHg 72%
    18:00 +2°C° 0 mm 9 m/s 745 mmHg 75%
    19:00 +2°C° 0 mm 9 m/s 746 mmHg 73%
    20:00 +2°C° 0 mm 9 m/s 746 mmHg 71%
    21:00 +2°C° 0 mm 10 m/s 746 mmHg 69%
    22:00 +2°C° 0 mm 9 m/s 747 mmHg 70%
    23:00 +1°C° 0 mm 9 m/s 747 mmHg 70%

    11 Febrero, Jueves

    hora temperatura Precipitaciones Viento Presión Humedad
    00:00 +1°C° 0 mm 9 m/s 748 mmHg 70%
    01:00 +1°C° 0 mm 9 m/s 748 mmHg 70%
    02:00 +1°C° 0 mm 8 m/s 748 mmHg 71%
    03:00 +1°C° 0 mm 8 m/s 749 mmHg 71%
    04:00 +1°C° 0 mm 8 m/s 749 mmHg 73%
    05:00 +2°C° 0 mm 7 m/s 749 mmHg 75%
    06:00 0°C° 0 mm 7 m/s 749 mmHg 78%
    07:00 +2°C° 0,1 mm 7 m/s 749 mmHg 77%
    08:00 +2°C° 0,1 mm 7 m/s 749 mmHg 77%
    09:00 +3°C° 0,1 mm 7 m/s 750 mmHg 77%
    10:00 +3°C° 0,1 mm 7 m/s 750 mmHg 75%
    11:00 +4°C° 0,1 mm 7 m/s 750 mmHg 73%
    12:00 +5°C° 0,1 mm 7 m/s 750 mmHg 71%
    13:00 +5°C° 0,1 mm 6 m/s 750 mmHg 69%
    14:00 +5°C° 0,1 mm 6 m/s 750 mmHg 67%
    15:00 +6°C° 0,1 mm 5 m/s 750 mmHg 66%
    16:00 +5°C° 0 mm 4 m/s 751 mmHg 69%
    17:00 +4°C° 0 mm 4 m/s 751 mmHg 72%
    18:00 +3°C° 0 mm 3 m/s 751 mmHg 75%
    19:00 +2°C° 0 mm 3 m/s 751 mmHg 76%
    20:00 +2°C° 0 mm 3 m/s 751 mmHg 77%
    21:00 +2°C° 0 mm 3 m/s 751 mmHg 78%
    22:00 0°C° 0 mm 4 m/s 752 mmHg 79%
    23:00 0°C° 0 mm 4 m/s 752 mmHg 80%

    12 Febrero, Viernes

    hora temperatura Precipitaciones Viento Presión Humedad
    00:00 0°C° 0 mm 4 m/s 752 mmHg 81%
    01:00 0°C° 0 mm 4 m/s 751 mmHg 83%
    02:00 -1°C° 0 mm 5 m/s 751 mmHg 84%
    03:00 -1°C° 0 mm 5 m/s 751 mmHg 85%
    04:00 -1°C° 0 mm 5 m/s 751 mmHg 85%
    05:00 0°C° 0 mm 5 m/s 751 mmHg 85%
    06:00 -1°C° 0 mm 6 m/s 750 mmHg 86%
    07:00 0°C° 0 mm 5 m/s 750 mmHg 84%
    08:00 +1°C° 0 mm 5 m/s 750 mmHg 83%
    09:00 +2°C° 0 mm 5 m/s 749 mmHg 81%
    10:00 +2°C° 0 mm 5 m/s 749 mmHg 77%
    11:00 +3°C° 0 mm 5 m/s 749 mmHg 72%
    12:00 +4°C° 0 mm 6 m/s 749 mmHg 68%
    13:00 +5°C° 0 mm 5 m/s 749 mmHg 67%
    14:00 +5°C° 0 mm 4 m/s 748 mmHg 67%
    15:00 +5°C° 0 mm 3 m/s 747 mmHg 66%
    16:00 +4°C° 0 mm 3 m/s 747 mmHg 71%
    17:00 +3°C° 0 mm 3 m/s 747 mmHg 77%
    18:00 +1°C° 0 mm 3 m/s 747 mmHg 82%
    19:00 +1°C° 0 mm 3 m/s 747 mmHg 83%
    20:00 +1°C° 0 mm 3 m/s 747 mmHg 84%
    21:00 +1°C° 0 mm 3 m/s 747 mmHg 85%
    22:00 -1°C° 0 mm 4 m/s 747 mmHg 86%
    23:00 -1°C° 0 mm 4 m/s 747 mmHg 88%

    13 Febrero, Sábado

    hora temperatura Precipitaciones Viento Presión Humedad
    00:00 -1°C° 0 mm 4 m/s 747 mmHg 89%
    01:00 -1°C° 0 mm 5 m/s 747 mmHg 90%
    02:00 -1°C° 0 mm 5 m/s 746 mmHg 91%
    03:00 -2°C° 0 mm 5 m/s 746 mmHg 91%
    04:00 -2°C° 0 mm 5 m/s 747 mmHg 92%
    05:00 -2°C° 0 mm 5 m/s 747 mmHg 93%
    06:00 -2°C° 0 mm 5 m/s 747 mmHg 93%
    07:00 -1°C° 0 mm 5 m/s 747 mmHg 90%
    08:00 -1°C° 0 mm 5 m/s 747 mmHg 87%
    09:00 0°C° 0 mm 5 m/s 747 mmHg 84%
    10:00 +1°C° 0 mm 5 m/s 746 mmHg 79%
    11:00 +2°C° 0 mm 5 m/s 746 mmHg 75%
    12:00 +2°C° 0 mm 5 m/s 745 mmHg 70%
    13:00 +2°C° 0 mm 5 m/s 745 mmHg 71%
    14:00 +3°C° 0 mm 4 m/s 744 mmHg 72%
    15:00 +3°C° 0 mm 4 m/s 744 mmHg 73%
    16:00 +3°C° 0 mm 4 m/s 743 mmHg 77%
    17:00 +1°C° 0 mm 5 m/s 743 mmHg 82%
    18:00 0°C° 0 mm 5 m/s 742 mmHg 86%
    19:00 0°C° 0 mm 5 m/s 741 mmHg 88%
    20:00 -1°C° 0 mm 6 m/s 741 mmHg 89%
    21:00 -2°C° 0 mm 6 m/s 740 mmHg 90%
    22:00 -2°C° 0 mm 7 m/s 740 mmHg 89%
    23:00 -2°C° 0 mm 7 m/s 740 mmHg 88%
    Mostrar más